Year,Month,Day,Hour,Minute,Value (Times are PST for insolation in W/m^2)
2010,06,30,00,00,0.00
2010,06,30,00,01,0.00
2010,06,30,00,02,0.00
2010,06,30,00,03,0.00
2010,06,30,00,04,0.00
2010,06,30,00,05,0.00
2010,06,30,00,06,0.00
2010,06,30,00,07,0.00
2010,06,30,00,08,0.00
2010,06,30,00,09,0.00
2010,06,30,00,10,0.00
2010,06,30,00,11,0.00
2010,06,30,00,12,0.00
2010,06,30,00,13,0.00
2010,06,30,00,14,0.00
2010,06,30,00,15,0.00
2010,06,30,00,16,0.00
2010,06,30,00,17,0.00
2010,06,30,00,18,0.00
2010,06,30,00,19,0.00
2010,06,30,00,20,0.00
2010,06,30,00,21,0.00
2010,06,30,00,22,0.00
2010,06,30,00,23,0.00
2010,06,30,00,24,0.00
2010,06,30,00,25,0.00
2010,06,30,00,26,0.00
2010,06,30,00,27,0.00
2010,06,30,00,28,0.00
2010,06,30,00,29,0.00
2010,06,30,00,30,0.00
2010,06,30,00,31,0.00
2010,06,30,00,32,0.00
2010,06,30,00,33,0.00
2010,06,30,00,34,0.00
2010,06,30,00,35,0.00
2010,06,30,00,36,0.00
2010,06,30,00,37,0.00
2010,06,30,00,38,0.00
2010,06,30,00,39,0.00
2010,06,30,00,40,0.00
2010,06,30,00,41,0.00
2010,06,30,00,42,0.00
2010,06,30,00,43,0.00
2010,06,30,00,44,0.00
2010,06,30,00,45,0.00
2010,06,30,00,46,0.00
2010,06,30,00,47,0.00
2010,06,30,00,48,0.00
2010,06,30,00,49,0.00
2010,06,30,00,50,0.00
2010,06,30,00,51,0.00
2010,06,30,00,52,0.00
2010,06,30,00,53,0.00
2010,06,30,00,54,0.00
2010,06,30,00,55,0.00
2010,06,30,00,56,0.00
2010,06,30,00,57,0.00
2010,06,30,00,58,0.00
2010,06,30,00,59,0.00
2010,06,30,01,00,0.00
2010,06,30,01,01,0.00
2010,06,30,01,02,0.00
2010,06,30,01,03,0.00
2010,06,30,01,04,0.00
2010,06,30,01,05,0.00
2010,06,30,01,06,0.00
2010,06,30,01,07,0.00
2010,06,30,01,08,0.00
2010,06,30,01,09,0.00
2010,06,30,01,10,0.00
2010,06,30,01,11,0.00
2010,06,30,01,12,0.00
2010,06,30,01,13,0.00
2010,06,30,01,14,0.00
2010,06,30,01,15,0.00
2010,06,30,01,16,0.00
2010,06,30,01,17,0.00
2010,06,30,01,18,0.00
2010,06,30,01,19,0.00
2010,06,30,01,20,0.00
2010,06,30,01,21,0.00
2010,06,30,01,22,0.00
2010,06,30,01,23,0.00
2010,06,30,01,24,0.00
2010,06,30,01,25,0.00
2010,06,30,01,26,0.00
2010,06,30,01,27,0.00
2010,06,30,01,28,0.00
2010,06,30,01,29,0.00
2010,06,30,01,30,0.00
2010,06,30,01,31,0.00
2010,06,30,01,32,0.00
2010,06,30,01,33,0.00
2010,06,30,01,34,0.00
2010,06,30,01,35,0.00
2010,06,30,01,36,0.00
2010,06,30,01,37,0.00
2010,06,30,01,38,0.00
2010,06,30,01,39,0.00
2010,06,30,01,40,0.00
2010,06,30,01,41,0.00
2010,06,30,01,42,0.00
2010,06,30,01,43,0.00
2010,06,30,01,44,0.00
2010,06,30,01,45,0.00
2010,06,30,01,46,0.00
2010,06,30,01,47,0.00
2010,06,30,01,48,0.00
2010,06,30,01,49,0.00
2010,06,30,01,50,0.00
2010,06,30,01,51,0.00
2010,06,30,01,52,0.00
2010,06,30,01,53,0.00
2010,06,30,01,54,0.00
2010,06,30,01,55,0.00
2010,06,30,01,56,0.00
2010,06,30,01,57,0.00
2010,06,30,01,58,0.00
2010,06,30,01,59,0.00
2010,06,30,02,00,0.00
2010,06,30,02,01,0.00
2010,06,30,02,02,0.00
2010,06,30,02,03,0.00
2010,06,30,02,04,0.00
2010,06,30,02,05,0.00
2010,06,30,02,06,0.00
2010,06,30,02,07,0.00
2010,06,30,02,08,0.00
2010,06,30,02,09,0.00
2010,06,30,02,10,0.00
2010,06,30,02,11,0.00
2010,06,30,02,12,0.00
2010,06,30,02,13,0.00
2010,06,30,02,14,0.00
2010,06,30,02,15,0.00
2010,06,30,02,16,0.00
2010,06,30,02,17,0.00
2010,06,30,02,18,0.00
2010,06,30,02,19,0.00
2010,06,30,02,20,0.00
2010,06,30,02,21,0.00
2010,06,30,02,22,0.00
2010,06,30,02,23,0.00
2010,06,30,02,24,0.00
2010,06,30,02,25,0.00
2010,06,30,02,26,0.00
2010,06,30,02,27,0.00
2010,06,30,02,28,0.00
2010,06,30,02,29,0.00
2010,06,30,02,30,0.00
2010,06,30,02,31,0.00
2010,06,30,02,32,0.00
2010,06,30,02,33,0.00
2010,06,30,02,34,0.00
2010,06,30,02,35,0.00
2010,06,30,02,36,0.00
2010,06,30,02,37,0.00
2010,06,30,02,38,0.00
2010,06,30,02,39,0.00
2010,06,30,02,40,0.00
2010,06,30,02,41,0.00
2010,06,30,02,42,0.00
2010,06,30,02,43,0.00
2010,06,30,02,44,0.00
2010,06,30,02,45,0.00
2010,06,30,02,46,0.00
2010,06,30,02,47,0.00
2010,06,30,02,48,0.00
2010,06,30,02,49,0.00
2010,06,30,02,50,0.00
2010,06,30,02,51,0.00
2010,06,30,02,52,0.00
2010,06,30,02,53,0.00
2010,06,30,02,54,0.00
2010,06,30,02,55,0.00
2010,06,30,02,56,0.00
2010,06,30,02,57,0.00
2010,06,30,02,58,0.00
2010,06,30,02,59,0.00
2010,06,30,03,00,0.00
2010,06,30,03,01,0.00
2010,06,30,03,02,0.00
2010,06,30,03,03,0.00
2010,06,30,03,04,0.00
2010,06,30,03,05,0.00
2010,06,30,03,06,0.00
2010,06,30,03,07,0.00
2010,06,30,03,08,0.00
2010,06,30,03,09,0.00
2010,06,30,03,10,0.00
2010,06,30,03,11,0.00
2010,06,30,03,12,0.00
2010,06,30,03,13,0.00
2010,06,30,03,14,0.00
2010,06,30,03,15,0.00
2010,06,30,03,16,0.00
2010,06,30,03,17,0.00
2010,06,30,03,18,0.00
2010,06,30,03,19,0.00
2010,06,30,03,20,0.00
2010,06,30,03,21,0.00
2010,06,30,03,22,0.00
2010,06,30,03,23,0.00
2010,06,30,03,24,0.00
2010,06,30,03,25,0.00
2010,06,30,03,26,0.00
2010,06,30,03,27,0.00
2010,06,30,03,28,0.00
2010,06,30,03,29,0.00
2010,06,30,03,30,0.00
2010,06,30,03,31,0.00
2010,06,30,03,32,0.00
2010,06,30,03,33,0.00
2010,06,30,03,34,0.00
2010,06,30,03,35,0.00
2010,06,30,03,36,0.00
2010,06,30,03,37,0.00
2010,06,30,03,38,0.00
2010,06,30,03,39,0.00
2010,06,30,03,40,0.00
2010,06,30,03,41,0.00
2010,06,30,03,42,0.00
2010,06,30,03,43,0.00
2010,06,30,03,44,0.00
2010,06,30,03,45,0.00
2010,06,30,03,46,0.00
2010,06,30,03,47,0.00
2010,06,30,03,48,0.00
2010,06,30,03,49,0.00
2010,06,30,03,50,0.00
2010,06,30,03,51,0.00
2010,06,30,03,52,0.00
2010,06,30,03,53,0.00
2010,06,30,03,54,0.00
2010,06,30,03,55,0.00
2010,06,30,03,56,0.00
2010,06,30,03,57,0.00
2010,06,30,03,58,0.00
2010,06,30,03,59,0.00
2010,06,30,04,00,0.00
2010,06,30,04,01,0.00
2010,06,30,04,02,0.00
2010,06,30,04,03,0.00
2010,06,30,04,04,0.00
2010,06,30,04,05,0.00
2010,06,30,04,06,0.00
2010,06,30,04,07,0.00
2010,06,30,04,08,0.00
2010,06,30,04,09,0.00
2010,06,30,04,10,0.00
2010,06,30,04,11,0.00
2010,06,30,04,12,0.00
2010,06,30,04,13,0.00
2010,06,30,04,14,0.00
2010,06,30,04,15,0.00
2010,06,30,04,16,0.00
2010,06,30,04,17,0.00
2010,06,30,04,18,0.00
2010,06,30,04,19,0.00
2010,06,30,04,20,0.00
2010,06,30,04,21,0.00
2010,06,30,04,22,0.00
2010,06,30,04,23,0.00
2010,06,30,04,24,0.00
2010,06,30,04,25,0.00
2010,06,30,04,26,0.00
2010,06,30,04,27,0.00
2010,06,30,04,28,0.00
2010,06,30,04,29,0.00
2010,06,30,04,30,0.00
2010,06,30,04,31,0.00
2010,06,30,04,32,0.00
2010,06,30,04,33,0.00
2010,06,30,04,34,0.00
2010,06,30,04,35,0.00
2010,06,30,04,36,0.00
2010,06,30,04,37,0.00
2010,06,30,04,38,0.00
2010,06,30,04,39,0.00
2010,06,30,04,40,0.00
2010,06,30,04,41,0.00
2010,06,30,04,42,0.00
2010,06,30,04,43,0.00
2010,06,30,04,44,0.00
2010,06,30,04,45,0.00
2010,06,30,04,46,0.00
2010,06,30,04,47,0.00
2010,06,30,04,48,0.00
2010,06,30,04,49,0.00
2010,06,30,04,50,0.00
2010,06,30,04,51,0.00
2010,06,30,04,52,0.00
2010,06,30,04,53,0.00
2010,06,30,04,54,0.00
2010,06,30,04,55,0.00
2010,06,30,04,56,0.00
2010,06,30,04,57,0.00
2010,06,30,04,58,0.00
2010,06,30,04,59,0.00
2010,06,30,05,00,0.00
2010,06,30,05,01,0.00
2010,06,30,05,02,0.00
2010,06,30,05,03,0.00
2010,06,30,05,04,0.00
2010,06,30,05,05,0.00
2010,06,30,05,06,0.00
2010,06,30,05,07,0.00
2010,06,30,05,08,0.00
2010,06,30,05,09,0.00
2010,06,30,05,10,0.00
2010,06,30,05,11,0.00
2010,06,30,05,12,0.00
2010,06,30,05,13,0.00
2010,06,30,05,14,0.00
2010,06,30,05,15,0.00
2010,06,30,05,16,0.00
2010,06,30,05,17,0.00
2010,06,30,05,18,0.00
2010,06,30,05,19,0.50
2010,06,30,05,20,5.00
2010,06,30,05,21,5.00
2010,06,30,05,22,5.00
2010,06,30,05,23,5.00
2010,06,30,05,24,5.00
2010,06,30,05,25,6.70
2010,06,30,05,26,7.00
2010,06,30,05,27,7.00
2010,06,30,05,28,7.00
2010,06,30,05,31,9.00
2010,06,30,05,32,9.00
2010,06,30,05,33,9.20
2010,06,30,05,34,11.00
2010,06,30,05,35,11.00
2010,06,30,05,36,11.00
2010,06,30,05,37,11.00
2010,06,30,05,38,11.00
2010,06,30,05,39,11.90
2010,06,30,05,40,12.00
2010,06,30,05,41,12.00
2010,06,30,05,42,12.00
2010,06,30,05,43,12.90
2010,06,30,05,44,14.00
2010,06,30,05,45,14.00
2010,06,30,05,46,14.00
2010,06,30,05,47,16.00
2010,06,30,05,48,18.00
2010,06,30,05,49,19.70
2010,06,30,05,50,27.30
2010,06,30,05,51,36.80
2010,06,30,05,52,44.20
2010,06,30,05,53,46.80
2010,06,30,05,54,47.20
2010,06,30,05,55,49.50
2010,06,30,05,56,51.60
2010,06,30,05,57,54.30
2010,06,30,05,58,57.20
2010,06,30,05,59,59.50
2010,06,30,06,00,58.30
2010,06,30,06,01,62.10
2010,06,30,06,02,65.00
2010,06,30,06,03,63.20
2010,06,30,06,04,57.00
2010,06,30,06,05,49.60
2010,06,30,06,06,42.10
2010,06,30,06,07,28.10
2010,06,30,06,08,21.30
2010,06,30,06,09,21.00
2010,06,30,06,10,21.00
2010,06,30,06,11,21.00
2010,06,30,06,12,22.20
2010,06,30,06,13,23.00
2010,06,30,06,14,23.00
2010,06,30,06,15,25.90
2010,06,30,06,16,28.00
2010,06,30,06,17,50.30
2010,06,30,06,18,87.10
2010,06,30,06,19,101.20
2010,06,30,06,20,90.50
2010,06,30,06,21,108.90
2010,06,30,06,22,113.50
2010,06,30,06,23,108.00
2010,06,30,06,24,101.70
2010,06,30,06,25,48.50
2010,06,30,06,26,32.00
2010,06,30,06,27,32.80
2010,06,30,06,28,33.00
2010,06,30,06,29,35.10
2010,06,30,06,30,37.00
2010,06,30,06,31,37.00
2010,06,30,06,32,38.00
2010,06,30,06,33,39.00
2010,06,30,06,34,39.70
2010,06,30,06,35,41.70
2010,06,30,06,36,42.20
2010,06,30,06,37,44.60
2010,06,30,06,38,48.40
2010,06,30,06,39,52.00
2010,06,30,06,40,54.80
2010,06,30,06,41,58.80
2010,06,30,06,42,61.70
2010,06,30,06,43,62.80
2010,06,30,06,44,62.00
2010,06,30,06,45,62.00
2010,06,30,06,46,62.00
2010,06,30,06,47,62.00
2010,06,30,06,48,62.70
2010,06,30,06,49,63.00
2010,06,30,06,50,63.00
2010,06,30,06,51,63.00
2010,06,30,06,52,63.00
2010,06,30,06,53,63.00
2010,06,30,06,54,64.20
2010,06,30,06,55,65.00
2010,06,30,06,56,65.00
2010,06,30,06,57,63.00
2010,06,30,06,58,62.00
2010,06,30,06,59,61.30
2010,06,30,07,00,60.00
2010,06,30,07,01,58.80
2010,06,30,07,02,58.00
2010,06,30,07,03,58.00
2010,06,30,07,04,58.20
2010,06,30,07,05,60.60
2010,06,30,07,06,64.40
2010,06,30,07,07,67.90
2010,06,30,07,08,69.60
2010,06,30,07,09,71.40
2010,06,30,07,10,73.70
2010,06,30,07,11,74.20
2010,06,30,07,12,76.20
2010,06,30,07,13,77.70
2010,06,30,07,14,79.00
2010,06,30,07,15,80.20
2010,06,30,07,16,81.00
2010,06,30,07,17,81.00
2010,06,30,07,18,81.20
2010,06,30,07,19,83.20
2010,06,30,07,20,84.70
2010,06,30,07,21,87.90
2010,06,30,07,22,90.60
2010,06,30,07,23,93.80
2010,06,30,07,24,96.70
2010,06,30,07,25,98.20
2010,06,30,07,26,100.50
2010,06,30,07,27,102.70
2010,06,30,07,28,105.40
2010,06,30,07,29,107.00
2010,06,30,07,30,108.40
2010,06,30,07,31,110.60
2010,06,30,07,32,111.20
2010,06,30,07,33,113.60
2010,06,30,07,34,116.70
2010,06,30,07,35,119.50
2010,06,30,07,36,122.20
2010,06,30,07,37,125.80
2010,06,30,07,38,129.60
2010,06,30,07,39,130.20
2010,06,30,07,40,132.00
2010,06,30,07,41,131.30
2010,06,30,07,42,130.00
2010,06,30,07,43,128.80
2010,06,30,07,44,128.00
2010,06,30,07,45,128.00
2010,06,30,07,46,128.00
2010,06,30,07,47,128.00
2010,06,30,07,48,128.60
2010,06,30,07,49,130.90
2010,06,30,07,50,133.80
2010,06,30,07,51,138.00
2010,06,30,07,52,143.20
2010,06,30,07,53,149.40
2010,06,30,07,54,154.00
2010,06,30,07,55,159.30
2010,06,30,07,56,163.40
2010,06,30,07,57,167.40
2010,06,30,07,58,170.50
2010,06,30,07,59,173.60
2010,06,30,08,00,176.00
2010,06,30,08,01,176.00
2010,06,30,08,02,176.00
2010,06,30,08,03,176.00
2010,06,30,08,04,177.20
2010,06,30,08,05,176.60
2010,06,30,08,06,177.70
2010,06,30,08,07,178.10
2010,06,30,08,08,179.80
2010,06,30,08,09,184.80
2010,06,30,08,10,190.20
2010,06,30,08,11,199.60
2010,06,30,08,12,210.30
2010,06,30,08,13,219.80
2010,06,30,08,14,234.10
2010,06,30,08,15,253.00
2010,06,30,08,16,291.10
2010,06,30,08,17,389.90
2010,06,30,08,18,418.60
2010,06,30,08,19,360.50
2010,06,30,08,20,289.00
2010,06,30,08,21,280.70
2010,06,30,08,22,306.00
2010,06,30,08,23,350.10
2010,06,30,08,24,432.00
2010,06,30,08,25,432.00
2010,06,30,08,26,422.20
2010,06,30,08,27,439.20
2010,06,30,08,28,418.00
2010,06,30,08,29,410.00
2010,06,30,08,30,368.00
2010,06,30,08,31,296.90
2010,06,30,08,32,247.40
2010,06,30,08,33,225.70
2010,06,30,08,34,211.40
2010,06,30,08,35,206.80
2010,06,30,08,36,210.20
2010,06,30,08,37,225.10
2010,06,30,08,38,253.10
2010,06,30,08,39,329.80
2010,06,30,08,40,410.30
2010,06,30,08,41,417.20
2010,06,30,08,42,430.80
2010,06,30,08,43,589.50
2010,06,30,08,44,582.50
2010,06,30,08,45,575.60
2010,06,30,08,46,571.30
2010,06,30,08,47,562.30
2010,06,30,08,48,554.70
2010,06,30,08,49,551.50
2010,06,30,08,50,548.80
2010,06,30,08,51,540.70
2010,06,30,08,52,513.50
2010,06,30,08,53,515.00
2010,06,30,08,54,393.40
2010,06,30,08,55,350.00
2010,06,30,08,56,261.30
2010,06,30,08,57,253.00
2010,06,30,08,58,272.50
2010,06,30,08,59,341.00
2010,06,30,09,00,353.00
2010,06,30,09,01,421.00
2010,06,30,09,02,455.00
2010,06,30,09,03,585.50
2010,06,30,09,04,575.20
2010,06,30,09,05,568.50
2010,06,30,09,06,578.30
2010,06,30,09,07,575.80
2010,06,30,09,08,561.00
2010,06,30,09,09,476.20
2010,06,30,09,10,462.00
2010,06,30,09,11,479.00
2010,06,30,09,12,552.30
2010,06,30,09,13,572.70
2010,06,30,09,14,587.00
2010,06,30,09,15,571.70
2010,06,30,09,16,544.80
2010,06,30,09,17,503.90
2010,06,30,09,18,426.80
2010,06,30,09,19,407.90
2010,06,30,09,20,411.20
2010,06,30,09,21,446.00
2010,06,30,09,22,479.20
2010,06,30,09,23,480.80
2010,06,30,09,24,490.80
2010,06,30,09,25,508.20
2010,06,30,09,26,531.30
2010,06,30,09,27,545.00
2010,06,30,09,28,529.40
2010,06,30,09,29,486.00
2010,06,30,09,30,459.70
2010,06,30,09,31,430.10
2010,06,30,09,32,425.20
2010,06,30,09,33,458.50
2010,06,30,09,34,450.20
2010,06,30,09,35,461.80
2010,06,30,09,44,547.40
2010,06,30,09,45,555.20
2010,06,30,09,46,556.90
2010,06,30,09,47,550.70
2010,06,30,09,48,558.80
2010,06,30,09,49,585.80
2010,06,30,09,50,609.20
2010,06,30,09,51,619.70
2010,06,30,09,52,622.40
2010,06,30,09,53,625.60
2010,06,30,09,54,636.00
2010,06,30,09,55,684.50
2010,06,30,09,56,715.40
2010,06,30,09,57,688.00
2010,06,30,09,58,691.30
2010,06,30,09,59,692.80
2010,06,30,10,00,622.20
2010,06,30,10,01,687.00
2010,06,30,10,02,703.30
2010,06,30,10,03,691.40
2010,06,30,10,04,704.90
2010,06,30,10,05,711.70
2010,06,30,10,06,718.60
2010,06,30,10,07,746.60
2010,06,30,10,08,736.30
2010,06,30,10,09,719.00
2010,06,30,10,10,722.20
2010,06,30,10,11,746.20
2010,06,30,10,12,728.30
2010,06,30,10,13,672.80
2010,06,30,10,14,623.00
2010,06,30,10,15,651.10
2010,06,30,10,16,629.60
2010,06,30,10,17,587.00
2010,06,30,10,18,663.30
2010,06,30,10,19,696.00
2010,06,30,10,20,685.80
2010,06,30,10,21,683.20
2010,06,30,10,22,679.60
2010,06,30,10,23,685.30
2010,06,30,10,24,691.80
2010,06,30,10,25,680.50
2010,06,30,10,26,697.40
2010,06,30,10,27,702.10
2010,06,30,10,28,715.40
2010,06,30,10,29,728.00
2010,06,30,10,30,729.50
2010,06,30,10,31,744.80
2010,06,30,10,32,757.30
2010,06,30,10,33,752.00
2010,06,30,10,34,743.50
2010,06,30,10,35,761.00
2010,06,30,10,36,750.00
2010,06,30,10,37,689.40
2010,06,30,10,38,676.60
2010,06,30,10,39,705.80
2010,06,30,10,40,725.60
2010,06,30,10,41,764.40
2010,06,30,10,42,771.50
2010,06,30,10,43,752.00
2010,06,30,10,44,751.80
2010,06,30,10,45,743.20
2010,06,30,10,46,722.50
2010,06,30,10,47,716.70
2010,06,30,10,48,702.30
2010,06,30,10,49,717.00
2010,06,30,10,50,721.10
2010,06,30,10,51,728.70
2010,06,30,10,52,765.50
2010,06,30,10,53,762.90
2010,06,30,10,54,746.30
2010,06,30,10,55,720.80
2010,06,30,10,56,720.20
2010,06,30,10,57,703.30
2010,06,30,10,58,679.00
2010,06,30,10,59,674.00
2010,06,30,11,00,664.60
2010,06,30,11,01,660.20
2010,06,30,11,02,687.90
2010,06,30,11,03,698.80
2010,06,30,11,04,715.30
2010,06,30,11,05,739.20
2010,06,30,11,06,769.10
2010,06,30,11,07,785.30
2010,06,30,11,08,772.70
2010,06,30,11,09,766.90
2010,06,30,11,10,765.70
2010,06,30,11,11,747.80
2010,06,30,11,12,804.50
2010,06,30,11,13,844.50
2010,06,30,11,14,862.80
2010,06,30,11,15,865.30
2010,06,30,11,16,858.30
2010,06,30,11,17,834.00
2010,06,30,11,18,828.10
2010,06,30,11,19,809.30
2010,06,30,11,20,747.00
2010,06,30,11,21,674.40
2010,06,30,11,22,732.10
2010,06,30,11,23,787.60
2010,06,30,11,24,870.80
2010,06,30,11,25,888.00
2010,06,30,11,26,891.80
2010,06,30,11,27,895.40
2010,06,30,11,28,895.70
2010,06,30,11,29,871.30
2010,06,30,11,30,868.50
2010,06,30,11,31,853.00
2010,06,30,11,32,852.40
2010,06,30,11,33,863.30
2010,06,30,11,34,848.40
2010,06,30,11,35,853.80
2010,06,30,11,36,844.40
2010,06,30,11,37,749.60
2010,06,30,11,38,717.00
2010,06,30,11,39,735.60
2010,06,30,11,40,727.30
2010,06,30,11,41,737.00
2010,06,30,11,42,714.70
2010,06,30,11,43,647.30
2010,06,30,11,44,625.20
2010,06,30,11,45,643.20
2010,06,30,11,46,647.60
2010,06,30,11,47,701.80
2010,06,30,11,48,726.00
2010,06,30,11,49,755.30
2010,06,30,11,50,749.00
2010,06,30,11,51,743.90
2010,06,30,11,52,708.20
2010,06,30,11,53,640.10
2010,06,30,11,54,628.60
2010,06,30,11,55,683.60
2010,06,30,11,56,735.50
2010,06,30,11,57,717.90
2010,06,30,11,58,702.70
2010,06,30,11,59,696.80
2010,06,30,12,00,683.40
2010,06,30,12,01,683.80
2010,06,30,12,02,695.80
2010,06,30,12,03,659.50
2010,06,30,12,04,692.20
2010,06,30,12,05,709.00
2010,06,30,12,06,728.60
2010,06,30,12,07,760.50
2010,06,30,12,08,775.60
2010,06,30,12,09,759.20
2010,06,30,12,10,742.50
2010,06,30,12,11,730.50
2010,06,30,12,12,735.80
2010,06,30,12,13,681.50
2010,06,30,12,14,646.80
2010,06,30,12,15,668.70
2010,06,30,12,16,695.80
2010,06,30,12,17,698.20
2010,06,30,12,18,685.50
2010,06,30,12,19,658.70
2010,06,30,12,20,623.60
2010,06,30,12,21,673.50
2010,06,30,12,22,750.30
2010,06,30,12,23,785.30
2010,06,30,12,24,772.90
2010,06,30,12,25,749.80
2010,06,30,12,26,783.80
2010,06,30,12,27,838.00
2010,06,30,12,28,851.40
2010,06,30,12,29,861.00
2010,06,30,12,30,828.20
2010,06,30,12,31,754.20
2010,06,30,12,32,790.00
2010,06,30,12,33,751.60
2010,06,30,12,34,735.80
2010,06,30,12,35,713.80
2010,06,30,12,36,747.00
2010,06,30,12,37,851.20
2010,06,30,12,38,858.00
2010,06,30,12,39,843.40
2010,06,30,12,40,910.70
2010,06,30,12,41,840.00
2010,06,30,12,42,771.50
2010,06,30,12,43,645.40
2010,06,30,12,44,641.10
2010,06,30,12,45,629.50
2010,06,30,12,46,608.80
2010,06,30,12,47,663.50
2010,06,30,12,48,681.00
2010,06,30,12,49,661.60
2010,06,30,12,50,661.70
2010,06,30,12,51,706.90
2010,06,30,12,52,726.70
2010,06,30,12,53,724.00
2010,06,30,12,54,815.80
2010,06,30,12,55,752.10
2010,06,30,12,56,841.10
2010,06,30,12,57,845.50
2010,06,30,12,58,765.30
2010,06,30,12,59,711.00
2010,06,30,13,00,625.30
2010,06,30,13,01,612.00
2010,06,30,13,02,635.80
2010,06,30,13,03,707.00
2010,06,30,13,04,810.70
2010,06,30,13,05,960.70
2010,06,30,13,06,982.40
2010,06,30,13,07,989.00
2010,06,30,13,08,982.90
2010,06,30,13,09,976.90
2010,06,30,13,10,986.70
2010,06,30,13,11,970.50
2010,06,30,13,12,970.90
2010,06,30,13,13,970.80
2010,06,30,13,14,978.10
2010,06,30,13,15,976.10
2010,06,30,13,16,965.20
2010,06,30,13,17,929.40
2010,06,30,13,18,918.10
2010,06,30,13,19,905.90
2010,06,30,13,20,965.80
2010,06,30,13,21,954.30
2010,06,30,13,22,888.90
2010,06,30,13,23,876.20
2010,06,30,13,24,914.00
2010,06,30,13,25,849.00
2010,06,30,13,26,664.60
2010,06,30,13,27,557.00
2010,06,30,13,28,557.00
2010,06,30,13,29,959.40
2010,06,30,13,30,943.50
2010,06,30,13,31,929.20
2010,06,30,13,32,911.80
2010,06,30,13,33,905.80
2010,06,30,13,34,916.80
2010,06,30,13,35,912.60
2010,06,30,13,36,910.60
2010,06,30,13,37,907.00
2010,06,30,13,38,907.00
2010,06,30,13,39,907.00
2010,06,30,13,40,857.10
2010,06,30,13,41,883.00
2010,06,30,13,42,900.80
2010,06,30,13,43,897.70
2010,06,30,13,44,895.60
2010,06,30,13,45,900.50
2010,06,30,13,46,908.00
2010,06,30,13,47,911.60
2010,06,30,13,48,916.50
2010,06,30,13,49,918.90
2010,06,30,13,50,854.60
2010,06,30,13,51,886.90
2010,06,30,13,52,840.70
2010,06,30,13,53,876.90
2010,06,30,13,54,894.20
2010,06,30,13,55,891.20
2010,06,30,13,56,885.80
2010,06,30,13,57,867.30
2010,06,30,13,58,876.50
2010,06,30,13,59,897.60
2010,06,30,14,00,897.80
2010,06,30,14,01,883.60
2010,06,30,14,02,823.90
2010,06,30,14,03,808.40
2010,06,30,14,04,770.20
2010,06,30,14,05,772.00
2010,06,30,14,06,772.00
2010,06,30,14,07,772.00
2010,06,30,14,08,751.00
2010,06,30,14,09,737.00
2010,06,30,14,10,737.00
2010,06,30,14,11,696.30
2010,06,30,14,12,752.50
2010,06,30,14,13,820.10
2010,06,30,14,14,859.10
2010,06,30,14,15,868.00
2010,06,30,14,16,722.10
2010,06,30,14,17,658.20
2010,06,30,14,18,658.40
2010,06,30,14,19,697.20
2010,06,30,14,20,737.90
2010,06,30,14,21,686.10
2010,06,30,14,22,680.80
2010,06,30,14,23,673.50
2010,06,30,14,24,723.90
2010,06,30,14,25,814.20
2010,06,30,14,26,775.00
2010,06,30,14,27,715.00
2010,06,30,14,28,621.20
2010,06,30,14,29,526.10
2010,06,30,14,30,521.00
2010,06,30,14,31,506.00
2010,06,30,14,32,507.30
2010,06,30,14,33,507.70
2010,06,30,14,34,537.20
2010,06,30,14,35,561.80
2010,06,30,14,36,566.40
2010,06,30,14,37,581.50
2010,06,30,14,38,629.20
2010,06,30,14,39,688.20
2010,06,30,14,40,702.50
2010,06,30,14,41,679.00
2010,06,30,14,42,653.10
2010,06,30,14,43,592.50
2010,06,30,14,44,561.00
2010,06,30,14,45,532.40
2010,06,30,14,46,521.30
2010,06,30,14,47,540.50
2010,06,30,14,48,561.60
2010,06,30,14,49,546.50
2010,06,30,14,50,516.00
2010,06,30,14,51,515.80
2010,06,30,14,52,506.40
2010,06,30,14,53,487.40
2010,06,30,14,54,461.20
2010,06,30,14,55,446.00
2010,06,30,14,56,439.00
2010,06,30,14,57,420.00
2010,06,30,14,58,405.60
2010,06,30,14,59,390.40
2010,06,30,15,00,385.30
2010,06,30,15,01,385.50
2010,06,30,15,02,379.20
2010,06,30,15,03,378.50
2010,06,30,15,04,379.30
2010,06,30,15,05,375.20
2010,06,30,15,06,362.10
2010,06,30,15,07,353.90
2010,06,30,15,08,364.30
2010,06,30,15,09,370.50
2010,06,30,15,10,367.50
2010,06,30,15,11,375.60
2010,06,30,15,12,380.70
2010,06,30,15,13,393.80
2010,06,30,15,14,396.30
2010,06,30,15,15,398.60
2010,06,30,15,16,397.70
2010,06,30,15,17,399.90
2010,06,30,15,18,398.10
2010,06,30,15,19,391.60
2010,06,30,15,20,388.30
2010,06,30,15,21,377.10
2010,06,30,15,22,368.40
2010,06,30,15,23,363.30
2010,06,30,15,24,357.00
2010,06,30,15,25,358.90
2010,06,30,15,26,357.80
2010,06,30,15,27,361.20
2010,06,30,15,28,368.70
2010,06,30,15,29,365.20
2010,06,30,15,30,362.00
2010,06,30,15,31,365.30
2010,06,30,15,32,376.20
2010,06,30,15,33,393.90
2010,06,30,15,34,433.90
2010,06,30,15,35,446.40
2010,06,30,15,36,449.50
2010,06,30,15,37,442.40
2010,06,30,15,38,429.30
2010,06,30,15,39,422.90
2010,06,30,15,40,427.20
2010,06,30,15,41,425.60
2010,06,30,15,42,416.80
2010,06,30,15,43,416.50
2010,06,30,15,44,422.00
2010,06,30,15,45,416.50
2010,06,30,15,46,410.40
2010,06,30,15,47,413.70
2010,06,30,15,48,423.00
2010,06,30,15,49,436.00
2010,06,30,15,50,462.30
2010,06,30,15,51,474.80
2010,06,30,15,52,483.50
2010,06,30,15,53,487.80
2010,06,30,15,54,463.40
2010,06,30,15,55,472.90
2010,06,30,15,56,474.40
2010,06,30,15,57,465.10
2010,06,30,15,58,446.50
2010,06,30,15,59,436.60
2010,06,30,16,00,441.70
2010,06,30,16,01,443.40
2010,06,30,16,02,467.70
2010,06,30,16,03,404.00
2010,06,30,16,04,416.00
2010,06,30,16,05,470.10
2010,06,30,16,06,505.90
2010,06,30,16,07,516.00
2010,06,30,16,08,484.40
2010,06,30,16,09,462.50
2010,06,30,16,10,502.80
2010,06,30,16,11,570.30
2010,06,30,16,12,590.00
2010,06,30,16,13,585.30
2010,06,30,16,14,592.00
2010,06,30,16,15,596.90
2010,06,30,16,16,598.90
2010,06,30,16,17,530.00
2010,06,30,16,18,496.00
2010,06,30,16,19,481.30
2010,06,30,16,20,441.20
2010,06,30,16,21,415.60
2010,06,30,16,22,401.20
2010,06,30,16,23,373.70
2010,06,30,16,24,352.90
2010,06,30,16,25,351.30
2010,06,30,16,26,338.70
2010,06,30,16,27,328.40
2010,06,30,16,28,329.50
2010,06,30,16,29,326.10
2010,06,30,16,30,326.80
2010,06,30,16,31,330.40
2010,06,30,16,32,332.90
2010,06,30,16,33,329.30
2010,06,30,16,34,331.90
2010,06,30,16,35,331.00
2010,06,30,16,36,323.80
2010,06,30,16,37,316.90
2010,06,30,16,38,310.60
2010,06,30,16,39,303.40
2010,06,30,16,40,301.00
2010,06,30,16,41,300.10
2010,06,30,16,42,299.00
2010,06,30,16,43,300.50
2010,06,30,16,44,301.80
2010,06,30,16,45,304.10
2010,06,30,16,46,308.20
2010,06,30,16,47,311.50
2010,06,30,16,48,318.80
2010,06,30,16,49,322.60
2010,06,30,16,50,325.80
2010,06,30,16,51,329.50
2010,06,30,16,52,324.50
2010,06,30,16,53,319.00
2010,06,30,16,54,314.30
2010,06,30,16,55,312.10
2010,06,30,16,56,309.80
2010,06,30,16,57,310.50
2010,06,30,16,58,305.10
2010,06,30,16,59,301.00
2010,06,30,17,00,296.40
2010,06,30,17,01,294.00
2010,06,30,17,02,286.50
2010,06,30,17,03,280.10
2010,06,30,17,04,282.50
2010,06,30,17,05,283.00
2010,06,30,17,06,281.10
2010,06,30,17,07,282.50
2010,06,30,17,08,285.50
2010,06,30,17,09,282.00
2010,06,30,17,10,279.30
2010,06,30,17,11,278.00
2010,06,30,17,12,278.00
2010,06,30,17,13,272.10
2010,06,30,17,14,268.50
2010,06,30,17,15,266.30
2010,06,30,17,16,266.90
2010,06,30,17,17,270.30
2010,06,30,17,18,271.80